Regional Weather Roundup
Issued by NWS

Home | Current Version | Previous Version | Graphics & Text | Print | Product List | Glossary On
Versions: 1 2 3 4 5 6 7 8 9 10 11 12 13 14 15 16 17 18 19 20 21 22 23 24 25 26 27 28 29 30 31 32 33 34 35 36 37 38 39 40 41 42 43 44 45 46 47 48 49 50
000
ASUS45 KSLC 192110
RWRUT

UTAH REGIONAL WEATHER ROUNDUP
NATIONAL WEATHER SERVICE SALT LAKE CITY UT
200 PM MST FRI DEC 19 2014

UTZ001>011-023>025-192200-

NORTHERN UTAH

CITY           SKY/WX    TMP DP  RH WIND       PRES   REMARKS
BRIGHAM CITY   CLOUDY    45  28  53 S9        30.13F
HILL AFB       PTSUNNY   42  26  52 S14       30.11F
LOGAN          CLOUDY    42  28  57 CALM      30.11F
OGDEN          CLOUDY    44  26  49 S13       30.11F
PROVO AIRPORT  NOT AVBL
SALT LAKE CITY PTSUNNY   46  27  47 S13       30.12F
VERNAL         CLOUDY    29  21  72 SE3       30.21F
WENDOVER       MOSUNNY   37  27  65 NE7       30.12F WCI  32
HEBER CITY     PTSUNNY   37  27  65 CALM      30.13F
WEST JORDAN    PTSUNNY   43  30  61 S14       30.13F

$$

UTZ012>022-026-027-192200-

SOUTHERN/CENTRAL UTAH

CITY           SKY/WX    TMP DP  RH WIND       PRES   REMARKS
BLANDING       MOSUNNY   38  29  70 S5        30.26F WCI  35
BRYCE CANYON   PTSUNNY   33  20  58 SE12      30.17F WCI  24
CEDAR CITY     SUNNY     44  27  51 S17       30.15S
DELTA          MOSUNNY   44  25  48 S6        30.15F
MILFORD        SUNNY     47  26  44 S22G28    30.13F
MOAB/CYNLANDS  CLOUDY    40  31  70 CALM      30.19F
PRICE          PTSUNNY   31  24  75 E5        30.20R WCI  26
ST GEORGE      PTCLDY    48  34  57 NW3       30.23F
KANAB          PTSUNNY   43  32  65 S6        30.23F

$$

REGIONAL REPORTS     COLORADO/ARIZONA

CITY           SKY/WX    TMP DP  RH WIND       PRES   REMARKS
CRAIG, CO      SUNNY     28  21  75 E9        30.18F WCI  19
GRAND JUNCTION PTSUNNY   39  27  62 W3        30.22S
RIFLE          PTSUNNY   36  25  64 W8        30.20F WCI  30
MONTROSE       MOSUNNY   40  22  48 E6        30.20F
CORTEZ         MOSUNNY   41  25  53 W8        30.17F
PAGE, AZ       CLOUDY    43  31  62 CALM      30.20F
GRAND CANYON   PTSUNNY   41  28  60 NW6       30.19F
KINGMAN        SUNNY     54  31  41 SW9       30.18F
FLAGSTAFF      MOSUNNY   38  26  62 E5        30.18F WCI  34

$$

REGIONAL REPORTS    NEVADA/IDAHO/WYOMING

CITY           SKY/WX    TMP DP  RH WIND       PRES   REMARKS
LAS VEGAS, NV  MOSUNNY   54  38  54 SE5       30.16F
ELY            SUNNY     42  26  53 SW5       30.12F
ELKO           CLOUDY    44  28  53 W5        30.07F
POCATELLO, ID  LGT RAIN  41  29  62 S21       30.06S
BURLEY         CLOUDY    45  30  55 SW8       30.04S
EVANSTON, WY   CLOUDY    34  21  59 SW13      30.10F WCI  25
ROCK SPRINGS   CLOUDY    33  21  61 W21G26    30.08S WCI  21
KEMMERER       CLOUDY    32  21  64 W13       30.09F WCI  22

$$


USA.gov is the U.S. government's official web portal to all federal, state and local government web resources and services.